Flag for U.S.A. Weather past 2 weeks in Bridgewater, Massachusetts, U.S.A.

Now
68 °F

Sunny.


Feels Like: 68 °F
Forecast: 57 / 76 °F
Wind: 5 mph from South

Location: Taunton Municipal Airport

Current Time: Jul 3, 2015 at 9:45:49 PM

Latest Report: Jul 3, 2015 at 8:52 PM


Visibility: 10 mi

Pressure: 29.97 "Hg

Humidity: 61%

Dew point: 54 °F

Location of BridgewaterLocation

Historic Weather in Bridgewater — Graph

°F

Bridgewater temperature yesterday

Maximum temperature yesterday: 81 °F (at 12:52 PM)
Minimum temperature yesterday: 57 °F (at 5:52 AM)
Average temperature yesterday: 71 °F

Past Weeks' High & Low Weather Summary

 TemperatureHumidityPressure
High88 °F (Jun 22, 3:52 PM)97% (Jun 20, 1:59 AM)30.18 "Hg (Jun 20, 1:59 AM)
Low46 °F (Jun 27, 4:52 AM)32% (Jul 3, 1:52 PM)29.61 "Hg (Jun 21, 5:52 PM)
Average69 °F73%29.90 "Hg
* Reported Jun 18 7:52 PM — Jul 3 7:52 PM, Bridgewater, Weather by CustomWeather, © 2015

Note: Actual official high and low records may vary slightly from our data, if they occured in-between our weather recording intervals... More about our weather records

Advertising

Bridgewater weather history for previous 24 hours

 ConditionsComfort  
Time TempWeatherWind HumidityBarometerVisibility
7:52 PM
Fri, Jul 3
71 °FSunny.5 mph51%29.96 "Hg10 mi
6:52 PM74 °FSunny.9 mph48%29.96 "Hg10 mi
5:52 PM79 °FSunny.9 mph44%29.93 "Hg10 mi
4:52 PM81 °FPassing clouds.No wind34%29.93 "Hg10 mi
3:52 PM80 °FSunny.3 mph34%29.93 "Hg10 mi
2:52 PM82 °FSunny.5 mph32%29.94 "Hg10 mi
1:52 PM80 °FSunny.7 mph32%29.94 "Hg10 mi
12:52 PM79 °FPassing clouds.5 mph36%29.95 "Hg10 mi
11:52 AM77 °FSunny.6 mph36%29.94 "Hg10 mi
10:52 AM76 °FSunny.6 mph39%29.95 "Hg10 mi
9:52 AM74 °FSunny.7 mph43%29.95 "Hg10 mi
8:52 AM71 °FSunny.6 mph49%29.94 "Hg10 mi
7:52 AM68 °FSunny.6 mph61%29.93 "Hg10 mi
6:52 AM63 °FSunny.No wind84%29.91 "Hg10 mi
6:00 AM56 °FFog.No wind93%29.89 "Hg3 mi
4:58 AM56 °FFog.No wind93%29.88 "Hg1 mi
3:52 AM59 °FClear.No wind93%29.86 "Hg10 mi
2:52 AM63 °FClear.No wind90%29.85 "Hg9 mi
1:52 AM64 °FClear.No wind94%29.86 "Hg7 mi
12:52 AM65 °FPassing clouds.No wind94%29.85 "Hg8 mi
11:52 PM
Thu, Jul 2
66 °FPassing clouds.No wind90%29.85 "Hg9 mi
10:52 PM67 °FPassing clouds.No wind87%29.86 "Hg10 mi
9:52 PM68 °FMostly cloudy.No wind87%29.86 "Hg10 mi
Weather by CustomWeather, © 2015

See weather overviewHow to use our weather pages